Time,TemperatureF,DewpointF,PressureIn,WindDirection,WindDirectionDegrees,WindSpeedMPH,WindSpeedGustMPH,Humidity,HourlyPrecipIn,Conditions,Clouds,dailyrainin,SolarRadiationWatts/m^2,SoftwareType,DateUTC
2013-05-19 00:01:00,57.0,44.0,-100.00,West,275,16.0,28.0,61,0.00,,,0.00,0.000000,,2013-05-19 07:01:00,
2013-05-19 00:32:00,57.0,43.0,-100.00,West,280,14.0,23.0,59,0.00,,,0.00,0.000000,,2013-05-19 07:32:00,
2013-05-19 00:42:00,57.0,43.0,-100.00,West,280,14.0,23.0,59,0.00,,,0.00,0.000000,,2013-05-19 07:42:00,
2013-05-19 00:52:00,57.0,43.0,-100.00,West,280,14.0,23.0,59,0.00,,,0.00,0.000000,,2013-05-19 07:52:00,
2013-05-19 01:01:00,57.0,43.0,-100.00,West,280,14.0,23.0,59,0.00,,,0.00,0.000000,,2013-05-19 08:01:00,
2013-05-19 01:02:00,57.0,41.0,-100.00,NW,313,8.0,20.0,56,0.00,,,0.00,0.000000,,2013-05-19 08:02:00,
2013-05-19 01:32:00,57.0,41.0,-100.00,NW,313,8.0,20.0,56,0.00,,,0.00,0.000000,,2013-05-19 08:32:00,
2013-05-19 01:42:00,57.0,41.0,-100.00,NW,313,8.0,20.0,56,0.00,,,0.00,0.000000,,2013-05-19 08:42:00,
2013-05-19 01:52:00,57.0,41.0,-100.00,NW,313,8.0,20.0,56,0.00,,,0.00,0.000000,,2013-05-19 08:52:00,
2013-05-19 02:02:00,60.0,42.0,-100.00,NW,311,12.0,23.0,51,0.00,,,-99.99,0.000000,,2013-05-19 09:02:00,
2013-05-19 02:33:00,60.0,42.0,-100.00,NW,311,12.0,23.0,51,0.00,,,-99.99,0.000000,,2013-05-19 09:33:00,
2013-05-19 02:43:00,60.0,42.0,-100.00,NW,311,12.0,23.0,51,0.00,,,-99.99,0.000000,,2013-05-19 09:43:00,
2013-05-19 02:53:00,60.0,42.0,-100.00,NW,311,12.0,23.0,51,0.00,,,-99.99,0.000000,,2013-05-19 09:53:00,
2013-05-19 03:02:00,60.0,37.0,-100.00,NW,309,13.0,20.0,42,0.00,,,0.00,0.000000,,2013-05-19 10:02:00,
2013-05-19 03:23:00,60.0,37.0,-100.00,NW,309,13.0,20.0,42,0.00,,,0.00,0.000000,,2013-05-19 10:23:00,
2013-05-19 03:33:00,60.0,37.0,-100.00,NW,309,13.0,20.0,42,0.00,,,0.00,0.000000,,2013-05-19 10:33:00,
2013-05-19 03:42:00,60.0,37.0,-100.00,NW,309,13.0,20.0,42,0.00,,,0.00,0.000000,,2013-05-19 10:42:00,
2013-05-19 03:52:00,60.0,37.0,-100.00,NW,309,13.0,20.0,42,0.00,,,0.00,0.000000,,2013-05-19 10:52:00,
2013-05-19 04:32:00,60.0,33.0,-100.00,WNW,297,13.0,22.0,36,0.00,,,0.00,0.000000,,2013-05-19 11:32:00,
2013-05-19 04:42:00,60.0,33.0,-100.00,WNW,297,13.0,22.0,36,0.00,,,0.00,0.000000,,2013-05-19 11:42:00,
2013-05-19 04:52:00,60.0,33.0,-100.00,WNW,297,13.0,22.0,36,0.00,,,0.00,0.000000,,2013-05-19 11:52:00,
2013-05-19 05:01:00,60.0,33.0,-100.00,WNW,297,13.0,22.0,36,0.00,,,0.00,0.000000,,2013-05-19 12:01:00,
2013-05-19 05:32:00,59.0,36.0,-100.00,WNW,303,13.0,21.0,42,-99.99,,,0.00,0.000000,,2013-05-19 12:32:00,
2013-05-19 05:42:00,59.0,36.0,-100.00,WNW,303,13.0,21.0,42,-99.99,,,0.00,0.000000,,2013-05-19 12:42:00,
2013-05-19 05:52:00,59.0,36.0,-100.00,WNW,303,13.0,21.0,42,-99.99,,,0.00,0.000000,,2013-05-19 12:52:00,
2013-05-19 06:01:00,59.0,36.0,-100.00,WNW,303,13.0,21.0,42,-99.99,,,0.00,0.000000,,2013-05-19 13:01:00,
2013-05-19 07:32:00,60.0,35.0,-100.00,NW,314,0.0,0.0,39,-99.99,,,0.00,74.000000,,2013-05-19 14:32:00,
2013-05-19 07:42:00,60.0,35.0,-100.00,NW,314,0.0,0.0,39,-99.99,,,0.00,74.000000,,2013-05-19 14:42:00,
2013-05-19 07:52:00,60.0,35.0,-100.00,NW,314,0.0,0.0,39,-99.99,,,0.00,74.000000,,2013-05-19 14:52:00,
2013-05-19 08:01:00,60.0,35.0,-100.00,NW,314,0.0,0.0,39,-99.99,,,0.00,74.000000,,2013-05-19 15:01:00,
2013-05-19 08:02:00,62.0,35.0,-100.00,WNW,303,0.0,0.0,37,0.00,,,0.00,259.000000,,2013-05-19 15:02:00,
2013-05-19 08:33:00,62.0,35.0,-100.00,WNW,303,0.0,0.0,37,0.00,,,0.00,259.000000,,2013-05-19 15:33:00,
2013-05-19 08:43:00,62.0,35.0,-100.00,WNW,303,0.0,0.0,37,0.00,,,0.00,259.000000,,2013-05-19 15:43:00,
2013-05-19 08:53:00,62.0,35.0,-100.00,WNW,303,0.0,0.0,37,0.00,,,0.00,259.000000,,2013-05-19 15:53:00,
2013-05-19 09:32:00,64.0,37.0,-100.00,NW,309,0.0,0.0,36,0.00,,,0.00,464.000000,,2013-05-19 16:32:00,
2013-05-19 09:42:00,64.0,37.0,-100.00,NW,309,0.0,0.0,36,0.00,,,0.00,464.000000,,2013-05-19 16:42:00,
2013-05-19 09:52:00,64.0,37.0,-100.00,NW,309,0.0,0.0,36,0.00,,,0.00,464.000000,,2013-05-19 16:52:00,
2013-05-19 10:01:00,64.0,37.0,-100.00,NW,309,0.0,0.0,36,0.00,,,0.00,464.000000,,2013-05-19 17:01:00,
2013-05-19 10:02:00,68.0,38.0,-100.00,North,9,0.0,0.0,33,0.00,,,0.00,659.000000,,2013-05-19 17:02:00,
2013-05-19 10:32:00,68.0,38.0,-100.00,North,9,0.0,0.0,33,0.00,,,0.00,659.000000,,2013-05-19 17:32:00,
2013-05-19 10:42:00,68.0,38.0,-100.00,North,9,0.0,0.0,33,0.00,,,0.00,659.000000,,2013-05-19 17:42:00,
2013-05-19 10:52:00,68.0,38.0,-100.00,North,9,0.0,0.0,33,0.00,,,0.00,659.000000,,2013-05-19 17:52:00,
2013-05-19 11:32:00,68.0,37.0,-100.00,NE,52,12.0,23.0,32,0.00,,,0.00,826.000000,,2013-05-19 18:32:00,
2013-05-19 11:43:00,68.0,37.0,-100.00,NE,52,12.0,23.0,32,0.00,,,0.00,826.000000,,2013-05-19 18:43:00,
2013-05-19 11:53:00,68.0,37.0,-100.00,NE,52,12.0,23.0,32,0.00,,,0.00,826.000000,,2013-05-19 18:53:00,
2013-05-19 12:01:00,68.0,37.0,-100.00,NE,52,12.0,23.0,32,0.00,,,0.00,826.000000,,2013-05-19 19:01:00,
2013-05-19 12:02:00,72.0,38.0,-100.00,NE,51,11.0,25.0,29,0.00,,,0.00,945.000000,,2013-05-19 19:02:00,
2013-05-19 12:32:00,72.0,38.0,-100.00,NE,51,11.0,25.0,29,0.00,,,0.00,945.000000,,2013-05-19 19:32:00,
2013-05-19 12:42:00,72.0,38.0,-100.00,NE,51,11.0,25.0,29,0.00,,,0.00,945.000000,,2013-05-19 19:42:00,
2013-05-19 12:52:00,72.0,38.0,-100.00,NE,51,11.0,25.0,29,0.00,,,0.00,945.000000,,2013-05-19 19:52:00,
2013-05-19 13:02:00,74.0,37.0,-100.00,NW,308,7.0,25.0,26,0.00,,,0.00,1011.000000,,2013-05-19 20:02:00,
2013-05-19 13:32:00,74.0,37.0,-100.00,NW,308,7.0,25.0,26,0.00,,,0.00,1011.000000,,2013-05-19 20:32:00,
2013-05-19 13:42:00,74.0,37.0,-100.00,NW,308,7.0,25.0,26,0.00,,,0.00,1011.000000,,2013-05-19 20:42:00,
2013-05-19 13:52:00,74.0,37.0,-100.00,NW,308,7.0,25.0,26,0.00,,,0.00,1011.000000,,2013-05-19 20:52:00,
2013-05-19 14:02:00,77.0,35.0,-100.00,NNE,26,7.0,22.0,22,0.00,,,0.00,1020.000000,,2013-05-19 21:02:00,
2013-05-19 14:32:00,77.0,35.0,-100.00,NNE,26,7.0,22.0,22,0.00,,,0.00,1020.000000,,2013-05-19 21:32:00,
2013-05-19 14:43:00,77.0,35.0,-100.00,NNE,26,7.0,22.0,22,0.00,,,0.00,1020.000000,,2013-05-19 21:43:00,
2013-05-19 14:53:00,77.0,35.0,-100.00,NNE,26,7.0,22.0,22,0.00,,,0.00,1020.000000,,2013-05-19 21:53:00,
2013-05-19 15:02:00,77.0,34.0,-100.00,NW,325,9.0,19.0,21,0.00,,,0.00,971.000000,,2013-05-19 22:02:00,
2013-05-19 15:33:00,77.0,34.0,-100.00,NW,325,9.0,19.0,21,0.00,,,0.00,971.000000,,2013-05-19 22:33:00,
2013-05-19 15:42:00,77.0,34.0,-100.00,NW,325,9.0,19.0,21,0.00,,,0.00,971.000000,,2013-05-19 22:42:00,
2013-05-19 15:53:00,77.0,34.0,-100.00,NW,325,9.0,19.0,21,0.00,,,0.00,971.000000,,2013-05-19 22:53:00,
2013-05-19 16:32:00,79.0,32.0,-100.00,NNE,24,8.0,18.0,18,0.00,,,0.00,865.000000,,2013-05-19 23:32:00,
2013-05-19 16:42:00,79.0,32.0,-100.00,NNE,24,8.0,18.0,18,0.00,,,0.00,865.000000,,2013-05-19 23:42:00,
2013-05-19 16:52:00,79.0,32.0,-100.00,NNE,24,8.0,18.0,18,0.00,,,0.00,865.000000,,2013-05-19 23:52:00,
2013-05-19 17:01:00,79.0,32.0,-100.00,NNE,24,8.0,18.0,18,0.00,,,0.00,865.000000,,2013-05-20 00:01:00,
2013-05-19 17:22:00,80.0,28.0,-100.00,WNW,301,7.0,20.0,15,0.00,,,0.00,710.000000,,2013-05-20 00:22:00,
2013-05-19 17:32:00,80.0,28.0,-100.00,WNW,301,7.0,20.0,15,0.00,,,0.00,710.000000,,2013-05-20 00:32:00,
2013-05-19 17:42:00,80.0,28.0,-100.00,WNW,301,7.0,20.0,15,0.00,,,0.00,710.000000,,2013-05-20 00:42:00,
2013-05-19 17:52:00,80.0,28.0,-100.00,WNW,301,7.0,20.0,15,0.00,,,0.00,710.000000,,2013-05-20 00:52:00,
2013-05-19 18:01:00,80.0,28.0,-100.00,WNW,301,7.0,20.0,15,0.00,,,0.00,710.000000,,2013-05-20 01:01:00,
2013-05-19 18:32:00,78.0,34.0,-100.00,NW,304,7.0,16.0,20,0.00,,,0.00,516.000000,,2013-05-20 01:32:00,
2013-05-19 18:42:00,78.0,34.0,-100.00,NW,304,7.0,16.0,20,0.00,,,0.00,516.000000,,2013-05-20 01:42:00,
2013-05-19 18:52:00,78.0,34.0,-100.00,NW,304,7.0,16.0,20,0.00,,,0.00,516.000000,,2013-05-20 01:52:00,
2013-05-19 19:01:00,78.0,34.0,-100.00,NW,304,7.0,16.0,20,0.00,,,0.00,516.000000,,2013-05-20 02:01:00,
2013-05-19 19:22:00,75.0,36.0,-100.00,NW,305,8.0,15.0,24,0.00,,,0.00,308.000000,,2013-05-20 02:22:00,
2013-05-19 19:32:00,75.0,36.0,-100.00,NW,305,8.0,15.0,24,0.00,,,0.00,308.000000,,2013-05-20 02:32:00,
2013-05-19 19:42:00,75.0,36.0,-100.00,NW,305,8.0,15.0,24,0.00,,,0.00,308.000000,,2013-05-20 02:42:00,
2013-05-19 19:52:00,75.0,36.0,-100.00,NW,305,8.0,15.0,24,0.00,,,0.00,308.000000,,2013-05-20 02:52:00,
2013-05-19 20:01:00,75.0,36.0,-100.00,NW,305,8.0,15.0,24,0.00,,,0.00,308.000000,,2013-05-20 03:01:00,
2013-05-19 20:02:00,71.0,32.0,-100.00,NW,308,5.0,13.0,24,0.00,,,0.00,109.000000,,2013-05-20 03:02:00,
2013-05-19 20:33:00,71.0,32.0,-100.00,NW,308,5.0,13.0,24,0.00,,,0.00,109.000000,,2013-05-20 03:33:00,
2013-05-19 20:43:00,71.0,32.0,-100.00,NW,308,5.0,13.0,24,0.00,,,0.00,109.000000,,2013-05-20 03:43:00,
2013-05-19 20:52:00,71.0,32.0,-100.00,NW,308,5.0,13.0,24,0.00,,,0.00,109.000000,,2013-05-20 03:52:00,
2013-05-19 21:02:00,70.0,29.0,-100.00,NW,318,9.0,14.0,22,0.00,,,0.00,3.000000,,2013-05-20 04:02:00,
2013-05-19 21:33:00,70.0,29.0,-100.00,NW,318,9.0,14.0,22,0.00,,,0.00,3.000000,,2013-05-20 04:33:00,
2013-05-19 21:43:00,70.0,29.0,-100.00,NW,318,9.0,14.0,22,0.00,,,0.00,3.000000,,2013-05-20 04:43:00,
2013-05-19 21:52:00,70.0,29.0,-100.00,NW,318,9.0,14.0,22,0.00,,,0.00,3.000000,,2013-05-20 04:52:00,
2013-05-19 22:32:00,69.0,27.0,-100.00,NW,305,10.0,14.0,21,0.00,,,0.00,0.000000,,2013-05-20 05:32:00,
2013-05-19 22:42:00,69.0,27.0,-100.00,NW,305,10.0,14.0,21,0.00,,,0.00,0.000000,,2013-05-20 05:42:00,
2013-05-19 22:52:00,69.0,27.0,-100.00,NW,305,10.0,14.0,21,0.00,,,0.00,0.000000,,2013-05-20 05:52:00,
2013-05-19 23:01:00,69.0,27.0,-100.00,NW,305,10.0,14.0,21,0.00,,,0.00,0.000000,,2013-05-20 06:01:00,
2013-05-19 23:32:00,70.0,25.0,-100.00,NW,311,11.0,17.0,18,0.00,,,0.00,0.000000,,2013-05-20 06:32:00,
2013-05-19 23:42:00,70.0,25.0,-100.00,NW,311,11.0,17.0,18,0.00,,,0.00,0.000000,,2013-05-20 06:42:00,
2013-05-19 23:52:00,70.0,25.0,-100.00,NW,311,11.0,17.0,18,0.00,,,0.00,0.000000,,2013-05-20 06:52:00,